[[{"header":{"parameterUnit":"m.s-1","parameterCategory":1,"la1":30.2991,"la2":30.254,"lo1":-89.0895,"lo2":-89.0444,"dy":0.0017,"dx":0.0017,"nx":28,"ny":28,"refTime":"2023-11-03T03:00:00:Z","depth":0,"parameterNumber":2,"parameterNumberName":"U-component_of_WINDS"},"data":[0,0,0,0,0,0,0,0,0,0,0,0,0,0,0,0,0,0,0,0,0,0,0,0,0,0,0,0,0,0,0,0,0,0,0,0,0,0,0,0,0,0,0,0,0,0,0,0,0,0,0,0,0,0,0,0,0,0,-3.6818,-3.6817,0,-3.6795,-3.6794,-3.6794,-3.666,-3.6656,-3.6653,-3.665,-3.6628,-3.663,-3.6633,0,0,0,0,0,0,0,0,0,0,0,0,0,-3.6747,-3.6749,-3.6818,-3.6817,-3.6817,-3.6795,-3.6794,-3.6794,-3.666,-3.6656,-3.6652,-3.6649,-3.6627,-3.663,-3.6633,0,0,0,0,0,0,0,0,0,0,0,0,0,-3.6756,-3.675,-3.6818,-3.6748,-3.6741,-3.6795,-3.6794,-3.6794,-3.6661,-3.6656,-3.6651,-3.6647,-3.6626,-3.663,-3.6634,-3.6753,0,0,-3.6645,-3.6646,0,0,0,0,0,0,0,0,-3.6756,-3.6759,-3.6758,-3.6752,-3.6745,-3.6725,-3.6761,-3.678,-3.6662,-3.6692,-3.665,-3.6644,-3.6664,-3.6665,-3.6671,-3.6752,-3.6751,-3.6645,-3.6647,-3.6649,-3.665,0,0,0,0,0,0,0,-3.6756,-3.6759,-3.6808,-3.6758,-3.675,-3.6718,-3.6714,-3.6764,-3.6706,-3.6689,-3.6679,-3.6678,-3.666,-3.6668,-3.667,-3.6751,-3.6645,-3.6648,-3.665,-3.6652,-3.6931,-3.6936,0,0,0,0,0,0,-3.6765,-3.676,-3.6809,-3.6808,-3.6739,-3.6723,-3.6718,-3.6736,-3.6705,-3.6695,-3.6682,-3.6672,-3.6664,-3.6665,-3.6668,-3.6808,-3.6649,-3.6652,-3.6654,-3.6926,-3.6933,-3.6938,0,0,0,0,0,0,-3.6764,-3.677,-3.681,-3.6781,-3.6784,-3.6729,-3.6751,-3.6739,-3.6746,-3.67,-3.6689,-3.6701,-3.666,-3.6663,-3.6733,-3.6805,-3.6654,-3.6657,-3.692,-3.6928,-3.6935,-3.7088,0,0,0,0,0,0,-3.6762,-3.6771,-3.6815,-3.6783,-3.6786,-3.6876,-3.6755,-3.6742,-3.6753,-3.6739,-3.6714,-3.6706,-3.6657,-3.6729,-3.6737,-3.6807,-3.666,-3.6913,-3.6924,-3.6933,-3.7076,-3.71,-3.712,0,0,0,0,0,-3.676,-3.6859,-3.6818,-3.6825,-3.684,-3.688,-3.6882,-3.6823,-3.6759,-3.6804,-3.6774,-3.6706,-3.6796,-3.6737,-3.6745,-3.6818,-3.6909,-3.6921,-3.6932,-3.7066,-3.7095,-3.712,0,0,0,0,0,0,-3.6901,-3.6853,-3.6808,-3.6899,-3.6895,-3.6857,-3.6912,-3.6855,-3.6869,-3.6856,-3.6782,-3.6778,-3.686,-3.6845,-3.6781,-3.6933,-3.6841,-3.6855,-3.694,-3.6967,-3.6989,-3.6991,-3.6663,0,0,0,0,0,-3.6943,-3.6979,-3.6935,-3.702,-3.702,-3.6967,-3.6982,-3.6937,-3.693,-3.6927,-3.6902,-3.6899,-3.6926,-3.6945,-3.6967,-3.7073,-3.7066,-3.7127,-3.7149,-3.7167,-3.7181,-3.7237,-3.7264,-3.6977,-3.6977,-3.6977,0,0,-3.7029,-3.7008,-3.7035,-3.7048,-3.7039,-3.7079,-3.6966,-3.7012,-3.7041,-3.6934,-3.7,-3.6982,-3.6972,-3.7062,-3.7099,-3.7052,-3.7259,-3.7182,-3.7197,-3.7201,-3.7252,-3.7279,-3.7304,-3.6985,-3.6983,-3.6982,0,0,-3.7207,-3.7194,-3.7264,-3.7258,-3.7246,-3.721,-3.7228,-3.7199,-3.7183,-3.7247,-3.7168,-3.7202,-3.725,-3.7247,-3.7252,-3.7431,-3.737,-3.744,-3.7556,-3.7612,-3.7634,-3.7654,-3.7719,-3.7744,-3.7453,-3.7454,-3.7454,0,-3.7317,-3.7373,-3.7307,-3.7359,-3.7368,-3.7273,-3.7344,-3.7341,-3.7338,-3.7347,-3.7293,-3.7352,-3.7339,-3.7427,-3.7471,-3.7478,-3.7496,-3.7443,-3.7636,-3.7655,-3.7673,-3.7734,-3.7759,-3.7462,-3.7461,-3.746,-3.746,0,-3.7508,-3.7549,-3.7607,-3.7606,-3.7621,-3.7683,-3.7627,-3.7651,-3.7605,-3.7575,-3.7643,-3.7624,-3.7641,-3.7658,-3.7614,-3.7741,-3.7712,-3.7649,-3.7555,-3.771,-3.7767,-3.779,-3.7475,-3.7472,-3.7469,-3.7467,0,0,-3.7775,-3.7738,-3.7761,-3.776,-3.7741,-3.7771,-3.7828,-3.7845,-3.7868,-3.7869,-3.7916,-3.796,-3.7901,-3.7907,-3.7861,-3.791,-3.8056,-3.7841,-3.7839,-3.7883,-3.8196,-3.8246,-3.8274,-3.8014,-3.8019,-3.8022,-3.8198,0,-3.7947,-3.8043,-3.7987,-3.8091,-3.8129,-3.8039,-3.809,-3.8084,-3.8058,-3.8086,-3.8057,-3.809,-3.8009,-3.8012,-3.8057,-3.8029,-3.8118,-3.8015,-3.8059,-3.8062,-3.8066,-3.8303,-3.8355,-3.8522,-3.8219,-3.8223,-3.8226,0,-3.8161,-3.8172,-3.8281,-3.8255,-3.8269,-3.8315,-3.8327,-3.8355,-3.8347,-3.8325,-3.8332,-3.8275,-3.8331,-3.8237,-3.8314,-3.8245,-3.826,-3.8249,-3.8254,-3.8257,-3.8154,-3.8314,-3.8573,-3.8599,-3.826,-3.8257,-3.8254,0,-3.8347,-3.8388,-3.8459,-3.8461,-3.8433,-3.8468,-3.8458,-3.8445,-3.846,-3.847,-3.8479,-3.8496,-3.8506,-3.8521,-3.8471,-3.8407,-3.8555,-3.8457,-3.8539,-3.8541,-3.8576,-3.8574,-3.8842,-3.8583,-3.8583,-3.8582,-3.8582,0,-3.8545,-3.8616,-3.8542,-3.8586,-3.8663,-3.8598,-3.8676,-3.8656,-3.8646,-3.8685,-3.8608,-3.8647,-3.8577,-3.8609,-3.857,-3.864,-3.8645,-3.8629,-3.8619,-3.8637,-3.864,-3.8647,-3.8635,-3.8589,-3.8587,-3.8586,-3.8585,0,-3.8766,-3.872,-3.8791,-3.8759,-3.8753,-3.8811,-3.8784,-3.8824,-3.8792,-3.8843,-3.8851,-3.8803,-3.8837,-3.8787,-3.8816,-3.8789,-3.8888,-3.8858,-3.8891,-3.8883,-3.8969,-3.8962,-3.9252,-3.9288,-3.9004,-3.9007,-3.9009,0,-3.8897,-3.895,-3.8923,-3.8944,-3.8939,-3.8973,-3.8988,-3.8925,-3.8944,-3.894,-3.8981,-3.9008,-3.9026,-3.9085,-3.9053,-3.9074,-3.9046,-3.9146,-3.9049,-3.9067,-3.905,-3.9048,-3.9054,-3.9167,-3.917,-3.9173,-3.9175,0,-3.9135,-3.911,-3.9133,-3.915,-3.917,-3.918,-3.9184,-3.9205,-3.914,-3.9165,-3.9198,-3.9213,-3.9242,-3.9271,-3.9285,-3.9275,-3.9216,-3.9206,-3.9226,-3.9247,-3.9264,-3.9258,-3.8947,-3.92,-3.9197,-3.9195,-3.9194,-3.9193,-3.9316,-3.9359,-3.9348,-3.9377,-3.9374,-3.938,-3.9417,-3.939,-3.9417,-3.9436,-3.9398,-3.9442,-3.9433,-3.9446,-3.9443,-3.9477,-3.9433,-3.9463,-3.947,-3.9479,-3.9493,-3.9258,-3.9479,-3.9478,-3.9477,-3.9477,-3.9476,0,-3.9551,-3.954,-3.9568,-3.9577,-3.96,-3.9541,-3.9543,-3.9567,-3.9607,-3.9604,-3.9624,-3.9664,-3.9692,-3.9662,-3.9685,-3.9718,-3.9691,-3.9726,-3.9724,-3.9723,-3.953,-3.9511,-3.9747,-3.9747,-3.9747,-3.9747,-3.9747,-3.9747,-3.9677,-3.9747,-3.9721,-3.9789,-3.9777,-3.9819,-3.9826,-3.9832,-3.9829,-3.9877,-3.99,-3.988,-3.9867,-3.9888,-3.9912,-3.9902,-3.9915,-3.996,-3.9942,-3.9763,-3.9736,-3.9711,-3.9693,-3.9963,-3.9964,-4.0132,-4.0133,-4.0135]},{"header":{"parameterUnit":"m.s-1","parameterCategory":1,"la1":30.2991,"la2":30.254,"lo1":-89.0895,"lo2":-89.0444,"dy":0.0017,"dx":0.0017,"nx":28,"ny":28,"refTime":"2023-11-03T03:00:00:Z","depth":0,"parameterNumber":3,"parameterNumberName":"V-component_of_WINDS"},"data":[0,0,0,0,0,0,0,0,0,0,0,0,0,0,0,0,0,0,0,0,0,0,0,0,0,0,0,0,0,0,0,0,0,0,0,0,0,0,0,0,0,0,0,0,0,0,0,0,0,0,0,0,0,0,0,0,0,0,-0.8132,-0.8132,0,-0.8214,-0.8215,-0.8216,-0.8185,-0.8183,-0.8181,-0.8179,-0.8267,-0.8271,-0.8275,0,0,0,0,0,0,0,0,0,0,0,0,0,-0.795,-0.7953,-0.8131,-0.8132,-0.8134,-0.8214,-0.8215,-0.8216,-0.8185,-0.8183,-0.8181,-0.8178,-0.8266,-0.8271,-0.8275,0,0,0,0,0,0,0,0,0,0,0,0,0,-0.803,-0.7954,-0.8131,-0.8128,-0.8128,-0.8213,-0.8215,-0.8216,-0.8186,-0.8183,-0.818,-0.8177,-0.8264,-0.827,-0.8276,-0.8371,0,0,-0.8295,-0.8298,0,0,0,0,0,0,0,0,-0.8026,-0.8037,-0.8127,-0.8128,-0.8129,-0.8186,-0.8183,-0.8268,-0.8186,-0.8164,-0.8179,-0.8176,-0.8243,-0.825,-0.8272,-0.8375,-0.8379,-0.8295,-0.8299,-0.8302,-0.8304,0,0,0,0,0,0,0,-0.802,-0.8033,-0.8164,-0.8129,-0.813,-0.8123,-0.8131,-0.8199,-0.8218,-0.8166,-0.8164,-0.8174,-0.8243,-0.8266,-0.8274,-0.838,-0.8295,-0.8301,-0.8305,-0.8307,-0.8565,-0.8568,0,0,0,0,0,0,-0.8014,-0.8029,-0.8161,-0.8167,-0.8069,-0.8128,-0.8137,-0.8171,-0.8217,-0.8222,-0.8176,-0.8172,-0.8257,-0.8267,-0.8277,-0.8392,-0.8302,-0.8308,-0.8311,-0.8561,-0.8565,-0.8569,0,0,0,0,0,0,-0.801,-0.8026,-0.8158,-0.8097,-0.8113,-0.8134,-0.8172,-0.8174,-0.8197,-0.8225,-0.8229,-0.8197,-0.8255,-0.8268,-0.8347,-0.8394,-0.831,-0.8316,-0.8558,-0.8563,-0.8567,-0.8622,0,0,0,0,0,0,-0.8005,-0.8025,-0.8061,-0.8098,-0.8117,-0.8227,-0.8175,-0.8177,-0.8208,-0.8203,-0.8245,-0.825,-0.8254,-0.8338,-0.8354,-0.8401,-0.8321,-0.8554,-0.856,-0.8565,-0.8616,-0.8628,-0.8638,0,0,0,0,0,-0.7998,-0.8074,-0.8063,-0.8079,-0.8162,-0.823,-0.8241,-0.8243,-0.8212,-0.8248,-0.8266,-0.8248,-0.8386,-0.8347,-0.8364,-0.8414,-0.8551,-0.8558,-0.8565,-0.8611,-0.8626,-0.8638,0,0,0,0,0,0,-0.8043,-0.8079,-0.8067,-0.8156,-0.819,-0.8224,-0.8271,-0.8258,-0.8303,-0.8297,-0.8299,-0.8309,-0.839,-0.8409,-0.8365,-0.8508,-0.8464,-0.8475,-0.8493,-0.8507,-0.8518,-0.8513,-0.8326,0,0,0,0,0,-0.8063,-0.8114,-0.8142,-0.8219,-0.8236,-0.825,-0.828,-0.8279,-0.8314,-0.8329,-0.8352,-0.8389,-0.844,-0.8474,-0.8523,-0.8617,-0.8627,-0.866,-0.8671,-0.868,-0.869,-0.8743,-0.8758,-0.8592,-0.8592,-0.8592,0,0,-0.8105,-0.8131,-0.8164,-0.8228,-0.8254,-0.8308,-0.8263,-0.8322,-0.8363,-0.8338,-0.8415,-0.8433,-0.8473,-0.8561,-0.86,-0.8579,-0.8738,-0.8689,-0.8696,-0.8702,-0.8752,-0.8767,-0.8781,-0.8597,-0.8596,-0.8595,0,0,-0.8211,-0.8234,-0.8301,-0.8327,-0.8367,-0.8375,-0.8391,-0.8427,-0.8438,-0.8514,-0.8497,-0.8545,-0.8633,-0.8663,-0.8689,-0.8803,-0.8789,-0.8819,-0.8878,-0.8929,-0.8942,-0.8953,-0.8996,-0.9011,-0.8828,-0.8828,-0.8828,0,-0.8259,-0.8339,-0.8337,-0.8397,-0.8427,-0.8405,-0.8472,-0.8498,-0.8552,-0.8573,-0.8548,-0.8658,-0.8683,-0.8778,-0.8805,-0.8827,-0.8846,-0.8816,-0.894,-0.8951,-0.8962,-0.9003,-0.9019,-0.8832,-0.8831,-0.8831,-0.8831,0,-0.8398,-0.8453,-0.8502,-0.8553,-0.8587,-0.8651,-0.8659,-0.8694,-0.8689,-0.87,-0.8778,-0.8807,-0.8862,-0.8883,-0.8879,-0.8977,-0.8963,-0.8938,-0.8895,-0.8982,-0.902,-0.9036,-0.8837,-0.8835,-0.8834,-0.8834,0,0,-0.8538,-0.8584,-0.8603,-0.8626,-0.8666,-0.871,-0.8771,-0.8823,-0.8854,-0.8891,-0.8944,-0.9018,-0.8995,-0.9026,-0.9024,-0.9068,-0.9159,-0.9039,-0.904,-0.9062,-0.927,-0.9291,-0.9309,-0.9148,-0.9151,-0.9153,-0.9268,0,-0.8648,-0.8757,-0.8756,-0.8857,-0.8909,-0.8887,-0.8942,-0.8973,-0.8984,-0.903,-0.9043,-0.9096,-0.9061,-0.9079,-0.9122,-0.9139,-0.9201,-0.913,-0.92,-0.9202,-0.9194,-0.9328,-0.935,-0.9457,-0.9282,-0.9285,-0.9287,0,-0.8793,-0.8833,-0.894,-0.8972,-0.8993,-0.9042,-0.909,-0.9133,-0.9168,-0.9173,-0.9205,-0.9196,-0.926,-0.9212,-0.9301,-0.9252,-0.928,-0.9292,-0.9297,-0.9306,-0.9252,-0.9344,-0.9491,-0.9509,-0.931,-0.9308,-0.9306,0,-0.8887,-0.8968,-0.9042,-0.9062,-0.9101,-0.9136,-0.9154,-0.9185,-0.9216,-0.9257,-0.9277,-0.9325,-0.9352,-0.939,-0.9394,-0.9358,-0.9484,-0.9436,-0.9492,-0.9493,-0.9523,-0.9522,-0.968,-0.9536,-0.9536,-0.9535,-0.9535,0,-0.9013,-0.9079,-0.9085,-0.9131,-0.9205,-0.9201,-0.9275,-0.929,-0.9317,-0.9367,-0.935,-0.9396,-0.9398,-0.9446,-0.9449,-0.9523,-0.9535,-0.9542,-0.9543,-0.9546,-0.9545,-0.9567,-0.9561,-0.954,-0.9539,-0.9538,-0.9537,0,-0.9133,-0.9138,-0.9218,-0.9247,-0.9256,-0.9309,-0.9335,-0.9379,-0.9387,-0.945,-0.9464,-0.9478,-0.9533,-0.954,-0.9605,-0.9607,-0.9697,-0.9689,-0.9686,-0.9686,-0.9743,-0.9739,-0.9923,-0.9948,-0.9785,-0.9786,-0.9787,0,-0.9214,-0.9265,-0.9298,-0.9329,-0.9349,-0.9399,-0.943,-0.9428,-0.9461,-0.9503,-0.9543,-0.9595,-0.9638,-0.9728,-0.9744,-0.9794,-0.9788,-0.9849,-0.9796,-0.9797,-0.9792,-0.9791,-0.9796,-0.9861,-0.9863,-0.9864,-0.9865,0,-0.9359,-0.9359,-0.9404,-0.9449,-0.9486,-0.9522,-0.9556,-0.9583,-0.9585,-0.9623,-0.9678,-0.9711,-0.9776,-0.983,-0.9878,-0.9897,-0.9883,-0.9881,-0.9897,-0.9903,-0.99,-0.9904,-0.9717,-0.9878,-0.9877,-0.9876,-0.9875,-0.9875,-0.9464,-0.9508,-0.9539,-0.9589,-0.9614,-0.9645,-0.9688,-0.9701,-0.9747,-0.9799,-0.9795,-0.9856,-0.9888,-0.9951,-0.9974,-1.0023,-1.0003,-1.0026,-1.0032,-1.0039,-1.0046,-0.9889,-1.0031,-1.0031,-1.003,-1.003,-1.003,0,-0.9611,-0.9628,-0.9674,-0.9722,-0.9761,-0.974,-0.9776,-0.9811,-0.9866,-0.9896,-0.9938,-1.0001,-1.0052,-1.0072,-1.0122,-1.0157,-1.0152,-1.0171,-1.017,-1.0175,-1.0059,-1.0041,-1.0175,-1.0175,-1.0175,-1.0175,-1.0174,-1.0174,-0.9692,-0.9765,-0.9768,-0.9854,-0.9871,-0.9931,-0.9953,-0.9983,-1.0007,-1.0079,-1.012,-1.0132,-1.0158,-1.021,-1.0256,-1.026,-1.0281,-1.0304,-1.0306,-1.0198,-1.0183,-1.0169,-1.0153,-1.0307,-1.0308,-1.0418,-1.0419,-1.042]}]]